User: anonymous   Login
Location: Unspecified
(0.0000°N, 0.0000°E)
Time: 19:36:35
(UTC+00:00)
Language:

NIUSAT - Orbit

View from above orbital plane
View from above orbital plane
View from above satellite
View from above satellite

Ground track
Ground track

The orbit data is extracted from the following two-line orbital elements,

1 42766U 17036B   19077.59869747 +.00001099 +00000-0 +52639-4 0  9999
2 42766 097.3630 136.1806 0015885 177.3323 182.8001 15.20911692096239
Epoch (UTC): 18 March 2019 14:22:07
Eccentricity: 0.0015885
inclination: 97.3630°
perigee height: 492 km
apogee height: 514 km
right ascension of ascending node: 136.1806°
argument of perigee: 177.3323°
revolutions per day: 15.20911692
mean anomaly at epoch: 182.8001°
orbit number at epoch: 9623

The dashed part of the orbit path shows where the satellite is in the earth's shadow,  

DLR